Location: *
(33.3200°N, 8.3381°W)
Time: 00:14:21
(UTC+00:00)

SL-24 R/B - Pass Details

Date: 09 April 2020
Orbit: 505 x 1003 km, 97.4° (Epoch: 06 June)

Event Time Altitude Azimuth Distance (km) Brightness Sun altitude
Rises 20:29:19 0° 9° (N) 2,735 7.6 -18.7°
Reaches altitude 10° 20:31:30 10° 8° (N) 1,792 6.6 -19.1°
Maximum altitude 20:35:18 77° 282° (WNW) 530 3.7 -19.8°
Drops below altitude 10° 20:38:55 10° 197° (SSW) 1,709 6.2 -20.5°
Enters shadow 20:39:14 - 197° (SSW) 1,848 6.4 -20.6°
